Abilene, TX

12:48 PM CDT on May 23, 2018 (GMT -0500)
Abilene Regional

Weather History for KABI - January, 2014

Change the Weather History Date:

Thursday, January 23, 2014

  Actual Average Record
Temperature  
Mean Temperature 31 °F 45 °F  
Max Temperature 41 °F 57 °F 89 °F (1943)
Min Temperature 20 °F 33 °F 8 °F (1963)
Degree Days  
Heating Degree Days 34 20  
Month to date heating degree days 444 470  
Since 1 July heating degree days 1614 1515  
Cooling Degree Days 0 0  
Month to date cooling degree days 0 0  
Year to date cooling degree days 0 0  
Moisture  
Dew Point 4 °F    
Average Humidity 37    
Maximum Humidity 52    
Minimum Humidity 22    
Precipitation  
Precipitation 0.00 in 0.04 in 0.56 in (1889)
Month to date precipitation T 0.72  
Year to date precipitation T 0.72  
Sea Level Pressure  
Sea Level Pressure 30.47 in    
Wind  
Wind Speed 15 mph (NNE)    
Max Wind Speed 24 mph    
Max Gust Speed 36 mph    
Visibility 10 miles    
Events      
T = Trace of Precipitation, MM = Missing Value Source: NWS Daily Summary

Daily Weather History Graph

Daily Weather History Graph

Search for Another Location

Airport or City:

Astronomy

Jan. 23, 2014 Rise Set
Actual Time 7:37 AM CST 6:03 PM CST
Civil Twilight 7:11 AM CST 6:29 PM CST
Nautical Twilight 6:41 AM CST 6:59 PM CST
Astronomical Twilight 6:12 AM CST 7:28 PM CST
Moon 12:11 AM CST 11:40 AM CST
Length of Visible Light 11h 18m
Length of Day
10h 25m
Waning Gibbous, 55% of the Moon is Illuminated
Jan 23
Waning Gibbous
Jan 23
Last Quarter
Jan 30
New
Feb 6
First Quarter
Feb 14
Full

Hourly Weather History & Observations

Time (CST) Temp. Windchill Dew Point Humidity Pressure Visibility Wind Dir Wind Speed Gust Speed Precip Events Conditions
12:52 AM 37.9 °F 33.5 °F 19.9 °F 48% 30.11 in 10.0 mi NNE 5.8 mph - N/A   Clear
1:52 AM 36.0 °F 29.6 °F 19.0 °F 50% 30.14 in 10.0 mi North 8.1 mph - N/A   Clear
2:52 AM 36.0 °F 29.6 °F 19.0 °F 50% 30.16 in 10.0 mi NNE 8.1 mph - N/A   Clear
3:52 AM 36.0 °F 28.5 °F 19.9 °F 52% 30.20 in 10.0 mi NNE 10.4 mph - N/A   Clear
4:52 AM 35.1 °F 25.9 °F 18.0 °F 50% 30.22 in 10.0 mi NE 13.8 mph 21.9 mph N/A   Clear
5:52 AM 34.0 °F 24.6 °F 16.0 °F 48% 30.27 in 10.0 mi NE 13.8 mph 19.6 mph N/A   Clear
6:52 AM 34.0 °F 24.6 °F 14.0 °F 44% 30.31 in 10.0 mi NE 13.8 mph 24.2 mph N/A   Clear
7:52 AM 33.1 °F 22.2 °F 14.0 °F 46% 30.38 in 10.0 mi NNE 17.3 mph 25.3 mph N/A   Clear
8:52 AM 33.1 °F 22.2 °F 12.9 °F 43% 30.44 in 10.0 mi NNE 17.3 mph 26.5 mph N/A   Clear
9:52 AM 32.0 °F 20.8 °F 16.0 °F 52% 30.50 in 10.0 mi NNE 17.3 mph 27.6 mph N/A   Clear
10:52 AM 30.9 °F 18.4 °F 12.9 °F 47% 30.55 in 10.0 mi North 20.7 mph 27.6 mph N/A   Mostly Cloudy
11:52 AM 28.9 °F 14.8 °F 6.1 °F 38% 30.57 in 10.0 mi North 24.2 mph 32.2 mph N/A   Overcast
12:52 PM 28.0 °F 13.6 °F 1.0 °F 31% 30.58 in 10.0 mi North 24.2 mph 31.1 mph N/A   Overcast
2:52 PM 25.0 °F 10.2 °F -7.1 °F 24% 30.56 in 10.0 mi North 21.9 mph 29.9 mph N/A   Unknown
4:52 PM 24.1 °F 12.5 °F -9.9 °F 22% 30.61 in 10.0 mi North 12.7 mph 25.3 mph N/A   Unknown
5:52 PM 23.0 °F 8.0 °F -9.0 °F 24% 30.63 in 10.0 mi North 20.7 mph - N/A   Unknown
6:52 PM 23.0 °F 10.1 °F -9.0 °F 24% 30.66 in 10.0 mi NNE 15.0 mph 20.7 mph N/A   Overcast
7:52 PM 23.0 °F 11.1 °F -9.9 °F 23% 30.69 in 10.0 mi NNE 12.7 mph - N/A   Overcast
8:52 PM 23.0 °F 11.1 °F -9.0 °F 24% 30.71 in 10.0 mi North 12.7 mph - N/A   Overcast
9:52 PM 23.0 °F - -8.0 °F 25% 30.71 in 10.0 mi North - - N/A   Overcast
10:52 PM 21.9 °F 7.8 °F -7.1 °F 28% 30.72 in 10.0 mi North 17.3 mph - N/A   Overcast
11:52 PM 19.9 °F 6.2 °F -8.0 °F 29% 30.72 in 10.0 mi North 15.0 mph - N/A   Unknown